Location: ??
(36.7391°N, 127.5151°E)
Time: 12:12:06
(UTC+00:00)

Resurs 01 Rocket - Pass Details

Date: 07 June 2020
Orbit: 633 x 645 km, 98.0° (Epoch: 15 July)

Event Time Altitude Azimuth Distance (km) Brightness Sun altitude
Exits shadow 11:25:59 - 134° (SE) 2,124 3.6 -7.4°
Reaches altitude 10° 11:26:14 10° 132° (SE) 2,036 3.5 -7.5°
Maximum altitude 11:30:07 31° 71° (ENE) 1,137 2.6 -8.1°
Drops below altitude 10° 11:34:02 10° 9° (N) 2,045 4.6 -8.7°
Sets 11:36:26 0° 360° (N) 2,957 5.6 -9.1°
